EW3582 Weather Reports


Display with metric or nautical units.
time (UTC)temp
F
wind
direction
speed
MPH
gust
MPH
rain 1hr
in
rain 24hr
in
rain mn
in
humidity
%
barometer
mb
20181120211922 31 173 2.0 8.0 0.00 0.00 0.00 96 1010.2
20181120211423 31 100 2.0 7.0 0.00 0.00 0.00 96 1010.1
20181120210923 31 117 2.0 7.0 0.00 0.00 0.00 96 1010.1
20181120210422 31 147 2.0 7.0 0.00 0.00 0.00 96 1010.0
20181120205922 31 166 2.0 7.0 0.00 0.00 0.00 96 1010.0
20181120205424 31 174 1.0 6.0 0.00 0.00 0.00 96 1009.9
20181120204936 31 137 2.0 10.0 0.00 0.00 0.00 96 1009.9
20181120204435 31 176 2.0 10.0 0.00 0.00 0.00 96 1009.9
20181120203932 31 112 2.0 7.0 0.00 0.00 0.00 96 1009.9
20181120203429 31 130 3.0 7.0 0.00 0.00 0.00 96 1009.9
20181120202929 31 156 2.0 7.0 0.00 0.00 0.00 96 1009.8
20181120202429 31 115 2.0 7.0 0.00 0.00 0.00 96 1009.8
20181120201926 31 199 1.0 7.0 0.00 0.00 0.00 96 1009.8
20181120201422 31 144 1.0 6.0 0.00 0.00 0.00 96 1009.7
20181120200921 31 171 1.0 6.0 0.00 0.00 0.00 96 1009.7
20181120200420 31 169 2.0 6.0 0.00 0.00 0.00 96 1009.7
20181120195919 31 143 1.0 6.0 0.00 0.00 0.00 96 1009.6
20181120195418 31 195 2.0 9.0 0.00 0.00 0.00 96 1009.6
20181120194918 31 150 2.0 9.0 0.00 0.00 0.00 96 1009.6
20181120194423 31 162 2.0 6.0 0.00 0.00 0.00 96 1009.5
20181120193917 31 104 2.0 8.0 0.00 0.00 0.00 96 1009.5
20181120193419 31 106 2.0 9.0 0.00 0.00 0.00 96 1009.4
20181120192919 31 199 2.0 9.0 0.00 0.00 0.00 96 1009.4
20181120192419 31 173 2.0 7.0 0.00 0.00 0.00 96 1009.2
20181120191918 31 70 1.0 6.0 0.00 0.00 0.00 96 1009.1
20181120191418 31 168 1.0 6.0 0.00 0.00 0.00 96 1009.1
20181120190919 31 179 2.0 6.0 0.00 0.00 0.00 96 1009.1
20181120190419 31 97 2.0 7.0 0.00 0.00 0.00 96 1009.1
20181120185919 31 120 1.0 7.0 0.00 0.00 0.00 96 1009.1
20181120185418 31 124 1.0 7.0 0.00 0.00 0.00 96 1009.1
20181120184919 31 73 2.0 7.0 0.00 0.00 0.00 96 1009.0
20181120184419 31 77 1.0 4.0 0.00 0.00 0.00 96 1009.0
20181120183920 31 102 1.0 7.0 0.00 0.00 0.00 96 1008.9
20181120183419 31 170 2.0 7.0 0.00 0.00 0.00 96 1008.9
20181120182919 31 171 2.0 9.0 0.00 0.00 0.00 96 1008.9
20181120182419 31 171 3.0 9.0 0.00 0.00 0.00 96 1008.9
20181120181919 31 120 2.0 8.0 0.00 0.00 0.00 96 1008.8
20181120181419 31 123 2.0 7.0 0.00 0.00 0.00 96 1008.7
20181120180919 31 168 2.0 9.0 0.00 0.00 0.00 96 1008.7
20181120180418 31 133 3.0 9.0 0.00 0.00 0.00 96 1008.6
20181120175919 31 195 3.0 7.0 0.00 0.00 0.00 95 1008.5
20181120175418 31 97 2.0 7.0 0.00 0.00 0.00 96 1008.4
20181120174918 31 113 2.0 7.0 0.00 0.00 0.00 96 1008.4
20181120174418 31 165 2.0 8.0 0.00 0.00 0.00 95 1008.4
20181120173919 31 39 3.0 8.0 0.00 0.00 0.00 95 1008.3
20181120173418 31 107 3.0 8.0 0.00 0.00 0.00 95 1008.3
20181120172919 31 145 3.0 8.0 0.00 0.00 0.00 95 1008.2
20181120172419 31 183 4.0 10.0 0.00 0.00 0.00 95 1008.1
20181120171919 31 157 3.0 10.0 0.00 0.00 0.00 95 1008.1
20181120171418 31 146 3.0 10.0 0.00 0.00 0.00 95 1008.0
20181120170926 31 125 5.0 12.0 0.00 0.00 0.00 95 1008.0
20181120170418 31 131 5.0 13.0 0.00 0.00 0.00 95 1007.9
20181120165918 31 180 4.0 13.0 0.00 0.00 0.00 95 1007.8
20181120165417 31 157 4.0 10.0 0.00 0.00 0.00 95 1007.8
20181120164917 31 61 3.0 9.0 0.00 0.00 0.00 95 1007.7
20181120164418 31 133 4.0 12.0 0.00 0.00 0.00 95 1007.7
20181120163919 31 175 4.0 12.0 0.00 0.00 0.00 95 1007.6
20181120163417 31 171 3.0 8.0 0.00 0.00 0.00 95 1007.6
20181120162919 31 122 4.0 11.0 0.00 0.00 0.00 95 1007.4
20181120162418 31 181 4.0 11.0 0.00 0.00 0.00 95 1007.3
20181120161918 31 193 4.0 10.0 0.00 0.00 0.00 95 1007.2
20181120161418 31 185 4.0 12.0 0.00 0.00 0.00 95 1007.1
20181120160916 31 142 3.0 12.0 0.00 0.00 0.00 95 1007.2
20181120160415 31 94 4.0 8.0 0.00 0.00 0.00 95 1007.1
20181120155916 31 160 4.0 10.0 0.00 0.00 0.00 95 1007.1
20181120155415 31 156 4.0 10.0 0.00 0.00 0.00 95 1007.0
20181120154917 31 170 4.0 12.0 0.00 0.00 0.00 95 1007.0
20181120154418 31 149 4.0 12.0 0.00 0.00 0.00 95 1006.9
20181120153915 31 171 4.0 11.0 0.00 0.00 0.00 95 1006.8
20181120153420 31 121 4.0 12.0 0.00 0.00 0.00 95 1006.9
20181120152918 31 154 5.0 12.0 0.00 0.00 0.00 95 1006.8
20181120152419 31 173 4.0 12.0 0.00 0.00 0.00 95 1006.8
20181120151930 31 78 3.0 11.0 0.00 0.00 0.00 95 1006.8
20181120151430 31 168 4.0 14.0 0.00 0.00 0.00 95 1006.8
20181120150928 31 83 4.0 14.0 0.00 0.00 0.00 95 1006.8
20181120150429 31 158 4.0 10.0 0.00 0.00 0.00 95 1006.6
20181120145927 31 102 5.0 12.0 0.00 0.00 0.00 96 1006.6
20181120145427 31 71 5.0 12.0 0.00 0.00 0.00 96 1006.5
20181120144924 31 146 6.0 15.0 0.00 0.00 0.00 96 1006.6
20181120144427 31 74 6.0 15.0 0.00 0.00 0.00 96 1006.6
20181120143924 31 142 5.0 13.0 0.00 0.00 0.00 96 1006.6
20181120143424 31 139 5.0 12.0 0.00 0.00 0.00 96 1006.8
20181120142923 31 183 4.0 12.0 0.00 0.00 0.00 96 1006.8
20181120142422 31 132 4.0 12.0 0.00 0.00 0.00 96 1006.8
20181120141921 31 243 5.0 14.0 0.00 0.00 0.00 96 1006.7
20181120141418 31 294 5.0 14.0 0.00 0.00 0.00 96 1006.7
20181120140921 31 185 4.0 14.0 0.00 0.00 0.00 96 1006.7
20181120140416 31 114 4.0 10.0 0.00 0.00 0.00 96 1006.7
20181120135914 31 114 5.0 11.0 0.00 0.00 0.00 96 1006.6
20181120135418 31 188 5.0 13.0 0.00 0.00 0.00 96 1006.6
20181120134913 31 137 5.0 13.0 0.00 0.00 0.00 96 1006.5
20181120134416 31 131 4.0 13.0 0.00 0.00 0.00 96 1006.5
20181120133910 31 170 3.0 9.0 0.00 0.00 0.00 96 1006.5
20181120133413 31 157 4.0 13.0 0.00 0.00 0.00 96 1006.5
20181120132910 31 45 4.0 13.0 0.00 0.00 0.00 96 1006.5
20181120132410 31 89 4.0 18.0 0.00 0.00 0.00 96 1006.4
20181120131911 31 104 5.0 18.0 0.00 0.00 0.00 96 1006.4
20181120131408 31 89 5.0 15.0 0.00 0.00 0.00 96 1006.5
20181120130909 31 152 5.0 17.0 0.00 0.00 0.00 96 1006.5
20181120130410 31 214 6.0 17.0 0.00 0.00 0.00 96 1006.5
20181120125909 31 89 5.0 12.0 0.00 0.00 0.00 96 1006.5
20181120125410 31 144 4.0 11.0 0.00 0.00 0.00 96 1006.6
20181120124907 31 188 5.0 11.0 0.00 0.00 0.00 96 1006.7
20181120124409 31 133 5.0 14.0 0.00 0.00 0.00 96 1006.7
20181120123907 31 106 4.0 14.0 0.00 0.00 0.00 96 1006.6
20181120123406 31 167 4.0 13.0 0.00 0.00 0.00 96 1006.6
20181120122912 31 105 5.0 13.0 0.00 0.00 0.00 96 1006.6
20181120122407 31 100 5.0 12.0 0.00 0.00 0.00 96 1006.5
20181120121907 31 65 5.0 13.0 0.00 0.00 0.00 96 1006.6
20181120121408 31 135 5.0 13.0 0.00 0.00 0.00 96 1006.5
20181120120907 31 172 5.0 14.0 0.00 0.00 0.00 96 1006.4
20181120120408 31 86 4.0 14.0 0.00 0.00 0.00 96 1006.5
20181120115905 31 181 5.0 12.0 0.00 0.00 0.00 96 1006.7
20181120115407 31 77 5.0 17.0 0.00 0.00 0.00 96 1006.8
20181120114905 31 238 5.0 17.0 0.00 0.00 0.00 96 1006.8
20181120114404 31 163 6.0 13.0 0.00 0.00 0.00 96 1006.6
20181120113908 31 83 6.0 16.0 0.00 0.00 0.00 97 1006.6
20181120113405 31 127 6.0 16.0 0.00 0.00 0.00 97 1006.7
20181120112907 31 227 6.0 17.0 0.00 0.00 0.00 97 1006.6
20181120112407 31 136 6.0 17.0 0.00 0.00 0.00 97 1006.6
20181120111905 31 135 6.0 17.0 0.00 0.00 0.00 97 1006.6
20181120111406 31 253 5.0 17.0 0.00 0.00 0.00 97 1006.8
20181120110903 31 79 5.0 14.0 0.00 0.00 0.00 97 1006.7
20181120110404 31 153 5.0 11.0 0.00 0.00 0.00 97 1006.6
20181120105903 31 221 5.0 12.0 0.00 0.00 0.00 97 1006.6
20181120105403 31 120 5.0 12.0 0.00 0.00 0.00 97 1006.6
20181120104904 31 127 4.0 15.0 0.00 0.00 0.00 97 1006.7
20181120104403 31 169 4.0 15.0 0.00 0.00 0.00 97 1006.8
20181120103903 31 60 5.0 15.0 0.00 0.00 0.00 97 1006.8
20181120103407 31 133 5.0 15.0 0.00 0.00 0.00 97 1006.7
20181120102906 31 168 5.0 13.0 0.00 0.00 0.00 96 1006.8
20181120102407 31 60 5.0 13.0 0.00 0.00 0.00 96 1006.8
20181120101903 31 164 5.0 13.0 0.00 0.00 0.00 96 1006.9
20181120101406 31 157 5.0 16.0 0.00 0.00 0.00 96 1007.1
20181120100915 31 132 4.0 16.0 0.00 0.00 0.00 96 1007.1
20181120100417 31 195 4.0 11.0 0.00 0.00 0.00 96 1007.2
20181120095917 31 92 4.0 13.0 0.00 0.00 0.00 96 1007.3
20181120095416 31 111 4.0 13.0 0.00 0.00 0.00 96 1007.3
20181120094917 31 104 4.0 12.0 0.00 0.00 0.00 96 1007.4
20181120094417 31 167 4.0 12.0 0.00 0.00 0.00 96 1007.4
20181120093916 31 202 4.0 13.0 0.00 0.00 0.00 96 1007.6
20181120093416 31 40 5.0 13.0 0.00 0.00 0.00 96 1007.7
20181120092916 31 172 4.0 12.0 0.00 0.00 0.00 96 1007.8
20181120092415 31 116 4.0 12.0 0.00 0.00 0.00 96 1007.8
20181120091916 31 74 4.0 12.0 0.00 0.00 0.00 96 1007.9
20181120091417 31 116 4.0 12.0 0.00 0.00 0.00 96 1007.9
20181120090915 31 136 4.0 13.0 0.00 0.00 0.00 96 1007.9
20181120090417 31 30 4.0 15.0 0.00 0.00 0.00 96 1007.8
20181120085916 31 178 4.0 16.0 0.00 0.00 0.00 96 1007.9
20181120085416 31 77 4.0 16.0 0.00 0.00 0.00 95 1008.0
20181120084916 31 99 4.0 11.0 0.00 0.00 0.00 95 1008.0
20181120084416 31 359 4.0 14.0 0.00 0.00 0.00 95 1008.1
20181120083917 31 100 4.0 14.0 0.00 0.00 0.00 95 1008.0
20181120083416 31 160 5.0 14.0 0.00 0.00 0.00 95 1008.1
20181120082917 31 63 5.0 13.0 0.00 0.00 0.00 95 1008.2
20181120082416 31 147 6.0 14.0 0.00 0.00 0.00 95 1008.0
20181120081916 31 217 5.0 14.0 0.00 0.00 0.00 94 1008.1
20181120081415 31 99 4.0 13.0 0.00 0.00 0.00 94 1008.1
20181120080915 31 157 4.0 16.0 0.00 0.00 0.00 94 1008.1
20181120080415 31 156 5.0 16.0 0.00 0.00 0.00 94 1008.0
20181120075917 31 54 4.0 15.0 0.00 0.00 0.00 94 1008.0
20181120075416 31 119 5.0 18.0 0.00 0.00 0.00 94 1007.9
20181120074915 31 280 6.0 18.0 0.00 0.00 0.00 94 1008.0
20181120074416 31 156 5.0 16.0 0.00 0.00 0.00 95 1007.9
20181120073917 31 110 6.0 18.0 0.00 0.00 0.00 95 1008.0
20181120073413 31 135 6.0 19.0 0.00 0.00 0.00 95 1008.0
20181120072914 31 172 7.0 19.0 0.00 0.00 0.00 95 1008.0
20181120072412 31 145 7.0 19.0 0.00 0.00 0.00 95 1007.8
20181120071910 31 195 8.0 19.0 0.00 0.00 0.00 95 1007.8
20181120071410 31 82 7.0 21.0 0.00 0.00 0.00 95 1007.7
20181120070911 31 152 7.0 21.0 0.00 0.00 0.00 96 1007.8
20181120070407 31 185 8.0 22.0 0.00 0.00 0.00 96 1007.7
20181120065909 31 156 7.0 22.0 0.00 0.00 0.00 96 1007.8
20181120065408 31 205 7.0 24.0 0.00 0.00 0.00 96 1007.7
20181120064906 31 166 6.0 24.0 0.00 0.00 0.00 96 1007.9
20181120064408 31 139 5.0 14.0 0.00 0.00 0.00 96 1008.0
20181120063904 31 192 5.0 14.0 0.00 0.00 0.00 96 1008.0
20181120063406 31 147 5.0 17.0 0.00 0.00 0.00 96 1008.0
20181120062902 31 95 6.0 17.0 0.00 0.00 0.00 96 1008.0
20181120062404 31 141 6.0 17.0 0.00 0.00 0.00 96 1008.1
20181120061902 31 199 5.0 15.0 0.00 0.00 0.00 96 1008.3
20181120061402 31 127 5.0 14.0 0.00 0.00 0.00 96 1008.1
20181120060901 31 159 6.0 16.0 0.00 0.00 0.00 96 1008.2
20181120060401 30 77 6.0 17.0 0.00 0.00 0.00 96 1008.2
20181120055900 30 172 6.0 17.0 0.00 0.00 0.00 96 1008.2
20181120055400 30 133 6.0 12.0 0.00 0.00 0.00 96 1008.3
20181120054858 30 188 7.0 18.0 0.00 0.00 0.00 96 1008.1
20181120054401 30 183 7.0 18.0 0.00 0.00 0.00 96 1008.2
20181120053856 30 340 7.0 19.0 0.00 0.00 0.00 96 1008.3
20181120053357 30 182 6.0 19.0 0.00 0.00 0.00 96 1008.2
20181120052855 30 349 6.0 17.0 0.00 0.00 0.00 96 1008.2
20181120052354 30 168 6.0 15.0 0.00 0.00 0.00 96 1008.2
20181120051853 30 162 6.0 15.0 0.00 0.00 0.00 96 1008.2
20181120051353 30 224 6.0 18.0 0.00 0.00 0.00 96 1008.2
20181120050854 30 143 5.0 18.0 0.00 0.00 0.00 96 1008.3
20181120050353 30 180 5.0 17.0 0.00 0.00 0.00 96 1008.2
20181120045852 30 126 7.0 17.0 0.00 0.00 0.00 96 1008.2
20181120045354 30 143 7.0 19.0 0.00 0.00 0.00 96 1008.2
20181120044853 30 197 7.0 19.0 0.00 0.00 0.00 96 1008.2
20181120044355 30 160 6.0 17.0 0.00 0.00 0.00 96 1008.1
20181120043851 30 61 7.0 17.0 0.00 0.00 0.00 96 1008.1
20181120043353 30 31 7.0 17.0 0.00 0.00 0.00 96 1008.0
20181120042851 30 162 6.0 20.0 0.00 0.00 0.00 96 1008.1
20181120042351 30 186 7.0 20.0 0.00 0.00 0.00 96 1008.1
20181120041852 30 169 7.0 18.0 0.00 0.00 0.00 96 1008.1
20181120041357 30 156 7.0 18.0 0.00 0.00 0.00 96 1008.2
20181120040851 30 167 6.0 18.0 0.00 0.00 0.00 96 1008.1
20181120040351 30 164 6.0 25.0 0.00 0.00 0.00 96 1008.2
20181120035850 30 125 7.0 25.0 0.00 0.00 0.00 96 1008.4
20181120035352 30 189 5.0 17.0 0.00 0.00 0.00 96 1008.4
20181120034849 30 161 5.0 14.0 0.00 0.00 0.00 96 1008.4
20181120034351 30 151 6.0 15.0 0.00 0.00 0.00 96 1008.4
20181120033848 30 85 6.0 15.0 0.00 0.00 0.00 96 1008.4
20181120033348 30 160 5.0 13.0 0.00 0.00 0.00 96 1008.4
20181120032850 30 98 5.0 13.0 0.00 0.00 0.00 96 1008.4
20181120032349 30 88 5.0 13.0 0.00 0.00 0.00 96 1008.5
20181120031848 30 176 4.0 13.0 0.00 0.00 0.00 96 1008.5
20181120031350 29 114 5.0 17.0 0.00 0.00 0.00 96 1008.5
20181120030848 29 143 5.0 17.0 0.00 0.00 0.00 96 1008.6
20181120030350 29 174 4.0 12.0 0.00 0.00 0.00 96 1008.7
20181120025849 29 109 5.0 15.0 0.00 0.00 0.00 96 1008.6
20181120025349 29 82 6.0 15.0 0.00 0.00 0.00 96 1008.8
20181120024850 29 158 6.0 15.0 0.00 0.00 0.00 96 1008.8
20181120024349 29 145 6.0 18.0 0.00 0.00 0.00 96 1008.9
20181120023850 29 177 6.0 18.0 0.00 0.00 0.00 96 1009.1
20181120023350 29 110 6.0 16.0 0.00 0.00 0.00 96 1009.1
20181120022848 29 73 5.0 16.0 0.00 0.00 0.00 96 1009.1
20181120022349 29 203 5.0 15.0 0.00 0.00 0.00 96 1009.2
20181120021848 29 58 6.0 15.0 0.00 0.00 0.00 96 1009.2
20181120021351 29 136 6.0 12.0 0.00 0.00 0.00 96 1009.4
20181120020852 29 144 5.0 17.0 0.00 0.00 0.00 95 1009.4
20181120020347 29 166 5.0 17.0 0.00 0.00 0.00 95 1009.5
20181120015849 29 31 6.0 17.0 0.00 0.00 0.00 95 1009.5
20181120015349 29 93 6.0 17.0 0.00 0.00 0.00 95 1009.7
20181120014849 29 158 6.0 15.0 0.00 0.00 0.00 95 1009.7
20181120014352 29 149 7.0 16.0 0.00 0.00 0.00 95 1009.5
20181120013851 29 152 7.0 17.0 0.00 0.00 0.00 95 1009.6
20181120013350 29 157 6.0 17.0 0.00 0.00 0.00 95 1009.5
20181120012851 29 137 4.0 12.0 0.00 0.00 0.00 95 1009.7
20181120012350 29 43 3.0 11.0 0.00 0.00 0.00 95 1009.7
20181120011350 29 64 5.0 15.0 0.00 0.00 0.00 95 1009.8
20181120010849 29 122 4.0 15.0 0.00 0.00 0.00 95 1009.9
20181120010350 29 106 3.0 16.0 0.00 0.00 0.00 95 1009.9
20181120005849 29 147 5.0 16.0 0.00 0.00 0.00 95 1009.8
20181120005345 29 67 6.0 16.0 0.00 0.00 0.00 95 1010.0
20181120004845 29 186 6.0 16.0 0.00 0.00 0.00 94 1010.0
20181120004344 29 244 4.0 14.0 0.00 0.00 0.00 94 1009.9
20181120003845 29 147 5.0 13.0 0.00 0.00 0.00 94 1009.9
20181120003345 29 190 5.0 13.0 0.00 0.00 0.00 94 1010.0
20181120002845 29 134 5.0 12.0 0.00 0.00 0.00 94 1010.0
20181120002345 29 143 6.0 15.0 0.00 0.00 0.00 94 1010.0
20181120001844 29 94 6.0 15.0 0.00 0.00 0.00 94 1010.2
20181120001344 29 199 5.0 13.0 0.00 0.00 0.00 94 1010.3
20181120000850 29 153 6.0 15.0 0.00 0.00 0.00 93 1010.4
20181120000401 29 182 6.0 16.0 0.00 0.00 0.00 93 1010.4
20181119235900 29 212 6.0 16.0 0.00 0.00 0.00 94 1010.5
20181119235357 29 154 5.0 13.0 0.00 0.00 0.00 93 1010.6
20181119234859 29 200 5.0 13.0 0.00 0.00 0.00 93 1010.8
20181119234359 29 112 5.0 12.0 0.00 0.00 0.00 93 1010.9
20181119233858 29 135 5.0 12.0 0.00 0.00 0.00 93 1011.1
20181119233355 29 187 4.0 12.0 0.00 0.00 0.00 93 1011.2
20181119232857 29 58 4.0 12.0 0.00 0.00 0.00 93 1011.3
20181119232356 29 181 4.0 17.0 0.00 0.00 0.00 93 1011.3
20181119231855 29 300 4.0 17.0 0.00 0.00 0.00 93 1011.3
20181119231356 29 120 4.0 13.0 0.00 0.00 0.00 93 1011.1
20181119230855 29 127 4.0 13.0 0.00 0.00 0.00 93 1011.2
20181119230354 29 205 4.0 14.0 0.00 0.00 0.00 93 1011.2
20181119225855 29 167 5.0 15.0 0.00 0.00 0.00 93 1011.1
20181119225352 29 212 4.0 15.0 0.00 0.00 0.00 93 1010.9
20181119224852 29 35 5.0 14.0 0.00 0.00 0.00 93 1010.9
20181119224349 29 172 5.0 20.0 0.00 0.00 0.00 92 1011.1
20181119223852 29 109 5.0 20.0 0.00 0.00 0.00 92 1011.3
20181119223349 29 173 5.0 13.0 0.00 0.00 0.00 92 1011.1
20181119222848 29 185 4.0 14.0 0.00 0.00 0.00 92 1011.1
20181119222348 29 79 4.0 14.0 0.00 0.00 0.00 92 1011.2
20181119221849 29 89 4.0 12.0 0.00 0.00 0.00 92 1011.2
20181119221344 29 160 3.0 12.0 0.00 0.00 0.00 92 1011.3
20181119220852 29 98 4.0 11.0 0.00 0.00 0.00 92 1011.4
20181119220346 29 152 4.0 11.0 0.00 0.00 0.00 91 1011.4
20181119215850 29 122 4.0 11.0 0.00 0.00 0.00 91 1011.2
20181119215339 29 80 4.0 12.0 0.00 0.00 0.00 91 1011.2
20181119214841 29 184 5.0 15.0 0.00 0.00 0.00 91 1011.3
20181119214344 29 90 4.0 15.0 0.00 0.00 0.00 91 1011.3
20181119213839 29 180 4.0 13.0 0.00 0.00 0.00 91 1011.3
20181119213341 29 205 4.0 10.0 0.00 0.00 0.00 91 1011.4
20181119212840 29 140 4.0 11.0 0.00 0.00 0.00 91 1011.4
20181119212339 29 142 4.0 11.0 0.00 0.00 0.00 91 1011.4